Regional Weather Roundup
Issued by NWS

Home | Current Version | Previous Version | Text Only | Print | Product List | Glossary On
Versions: 1 2 3 4 5 6 7 8 9 10 11 12 13 14 15 16 17 18 19 20 21 22 23 24 25 26 27 28 29 30 31 32 33 34 35 36 37 38 39 40 41 42 43 44 45 46 47 48 49 50
000
ASUS43 KBIS 240410
RWRND

NORTH DAKOTA REGIONAL WEATHER ROUNDUP
NATIONAL WEATHER SERVICE BISMARCK ND
1100 PM CDT WED AUG 23 2017

NOTE: "FAIR" INDICATES FEW OR NO CLOUDS BELOW 12,000 FEET WITH NO
SIGNIFICANT WEATHER AND/OR OBSTRUCTIONS TO VISIBILITY.


NDZ001>003-009>011-017-240500-
NORTHWEST NORTH DAKOTA

CITY           SKY/WX    TMP DP  RH WIND       PRES   REMARKS
WILLISTON      CLEAR     72  50  45 E16G25    29.93R
MINOT          CLEAR     62  53  72 NE12      29.99R
MINOT AFB      CLEAR     61  52  71 E18       29.98R
$$

NDZ018>021-031>035-040>046-240500-
SOUTHWEST NORTH DAKOTA

CITY           SKY/WX    TMP DP  RH WIND       PRES   REMARKS
BISMARCK       CLEAR     62  57  83 SE6       29.95S
DICKINSON      CLEAR     63  54  72 S10       29.95R
GARRISON         N/A     62  57  83 N7        29.94R
HETTINGER ARPT CLEAR     66  55  67 E9        29.99R
$$

NDZ004>008-012>016-024-026-027-054-240500-
NORTHEAST NORTH DAKOTA

CITY           SKY/WX    TMP DP  RH WIND       PRES   REMARKS
GRAND FORKS    MOCLDY    57  55  93 E6        30.07S
GRND FRKS AFB  CLEAR     55  53  94 E3        30.08S
DEVILS LAKE    MOCLDY    57  50  77 E18       30.06R
$$

NDZ022-023-025-028>030-036>039-047>053-240500-
SOUTHEAST NORTH DAKOTA

CITY           SKY/WX    TMP DP  RH WIND       PRES   REMARKS
FARGO          MOCLDY    63  50  62 E21G28    30.05R
JAMESTOWN      CLEAR     60  55  83 E10       30.00R
$$





USA.gov is the U.S. government's official web portal to all federal, state and local government web resources and services.